Location: ?????????
(41.2286°N, 23.0068°E)
Time: 08:51:41
(UTC+00:00)

Cosmos 1939 Rocket - Pass Details

Date: 08 November 2025
Orbit: 492 x 528 km, 97.5° (Epoch: 05 December)

Event Time Altitude Azimuth Distance (km) Brightness Sun altitude
Rises 03:40:55 0° 1° (N) 2,684 6.3 -16.6°
Reaches altitude 10° 03:43:12 10° 351° (N) 1,788 5.2 -16.1°
Maximum altitude 03:46:35 30° 289° (WNW) 971 3.5 -15.5°
Enters shadow 03:46:54 30° 280° (W) 979 3.5 -15.5°
